Home   Weather   Markham   Past weeks

Flag for Canada Past Weather in Markham, Ontario, Canada — Yesterday and Last 2 Weeks

43 °F

Passing clouds.

Feels Like: 37 °F
Forecast: 32 / 44 °F
Wind: 10 mph from Northwest

Location: Toronto Buttonville

Current Time: Oct 24, 2016 at 9:29:41 PM

Latest Report: Oct 24, 2016 at 9:00 PM

Visibility: 15 mi

Pressure: 30.21 "Hg

Humidity: 57%

Dew Point: 28 °F

Location of MarkhamLocation

Past Weather in Markham — Graph


Markham Temperature Yesterday

Maximum temperature yesterday: 55 °F (at 4:00 PM)
Minimum temperature yesterday: 37 °F (at 3:00 AM)
Average temperature yesterday: 47 °F

High & Low Weather Summary for the Past Weeks

High75 °F (Oct 18, 12:00 PM)100% (Oct 17, 3:50 AM)30.50 "Hg (Oct 17, 3:50 AM)
Low32 °F (Oct 10, 7:00 AM)36% (Oct 10, 5:00 PM)29.54 "Hg (Oct 18, 2:00 PM)
Average53 °F76%30.04 "Hg
* Reported Oct 9 8:00 PM — Oct 24 8:00 PM, Markham, Weather by CustomWeather, © 2016

Note: Actual official high and low records may vary slightly from our data, if they occured in-between our weather recording intervals... More about our weather records


Markham Weather History for the Previous 24 Hours

Scroll right to see more
Time TempWeatherWind HumidityBarometerVisibility
8:00 PM
Mon, Oct 24
43 °FPassing clouds.13 mph57%30.21 "Hg15 mi
7:00 PM43 °FPartly cloudy.8 mph76%30.19 "Hg15 mi
6:00 PM45 °FPartly sunny.10 mph71%30.17 "Hg15 mi
5:00 PM45 °FBroken clouds.12 mph71%30.15 "Hg15 mi
4:00 PM46 °FBroken clouds.10 mph66%30.13 "Hg15 mi
3:00 PM46 °FBroken clouds.13 mph62%30.12 "Hg15 mi
2:00 PM46 °FPartly sunny.14 mph62%30.12 "Hg15 mi
1:00 PM45 °FPartly sunny.10 mph71%30.11 "Hg15 mi
12:00 PM45 °FPartly sunny.13 mph71%30.10 "Hg15 mi
11:54 AM45 °FSprinkles. Partly sunny.15 mph66%30.09 "Hg15 mi
11:00 AM43 °FSprinkles. Broken clouds.15 mph76%30.08 "Hg15 mi
10:00 AM41 °FPartly sunny.6 mph81%30.07 "Hg15 mi
9:00 AM39 °FMore clouds than sun.9 mph87%30.05 "Hg15 mi
8:00 AM41 °FOvercast.9 mph81%30.03 "Hg15 mi
7:00 AM43 °FPassing clouds.13 mph76%29.99 "Hg15 mi
6:00 AM43 °FMostly cloudy.7 mph76%29.97 "Hg15 mi
5:00 AM45 °FPassing clouds.7 mph76%29.95 "Hg15 mi
4:00 AM46 °FPartly cloudy.10 mph71%29.92 "Hg15 mi
3:00 AM46 °FPassing clouds.7 mph82%29.89 "Hg15 mi
2:00 AM46 °FPassing clouds.7 mph82%29.87 "Hg15 mi
1:00 AM45 °FPassing clouds.5 mph81%29.85 "Hg15 mi
12:00 AM46 °FPassing clouds.3 mph76%29.83 "Hg15 mi
11:00 PM
Sun, Oct 23
46 °FPassing clouds.5 mph82%29.82 "Hg15 mi
10:00 PM48 °FPassing clouds.5 mph76%29.84 "Hg15 mi
9:00 PM50 °FOvercast.6 mph67%29.84 "Hg15 mi
Weather by CustomWeather, © 2016

See weather overviewHow to use our weather pages